Weather Roundup
Issued by NWS Chicago, IL

Home | Current Version | Previous Version | Text Only | Print | Product List | Glossary Off
Versions: 1 2 3 4 5 6 7 8 9 10 11 12 13 14 15 16 17 18 19 20 21 22 23 24 25 26 27 28 29 30 31 32 33 34 35 36 37 38 39 40 41 42 43 44 45 46 47 48 49 50

000
NZUS59 KLOT 311112
HRRLOT

CHICAGO AREA WEATHER ROUNDUP
NATIONAL WEATHER SERVICE CHICAGO/ROMEOVILLE IL
600 AM CDT FRI JUL 31 2015

NOTE: "FAIR" INDICATES FEW OR NO CLOUDS BELOW 12,000 FEET WITH NO
SIGNIFICANT WEATHER AND/OR OBSTRUCTIONS TO VISIBILITY.

* THESE STATIONS ARE NOT UNDER NWS QUALITY CONTROL. THEY ALSO MAY NOT
  REPORT WEATHER SUCH AS PRECIPITATION OR FOG.

ILZ005-006-012>014-019>023-311200-
NORTHEAST ILLINOIS

CITY           SKY/WX    TMP DP  RH WIND       PRES   REMARKS
OHARE          PTCLDY    67  59  75 W8        30.01S
MIDWAY         PTCLDY    71  57  61 SW6       30.01F
AURORA         PTCLDY    60  56  86 SW5       30.03F
LANSING*       CLEAR     61  59  92 CALM      30.02F
JOLIET*        CLEAR     61  61  99 CALM      30.04S FOG
WAUKEGAN       CLEAR     66  58  75 CALM      29.99F
DUPAGE AIRPORT CLEAR     64  58  80 VRB3      30.02F
WHEELING       CLEAR     69  57  65 W5        30.02F
KANKAKEE*      CLEAR     65  63  93 W3        30.05F
MORRIS*        CLEAR     63  61  94 W5        30.03S
LEWIS AIRPORT* CLEAR     60  58  93 CALM      30.04S
NORTHERLY IS     N/A     73  57  57 W9          N/A
$$

WIZ051-052-058>065-066-070>072-311200-
SOUTHEAST WISCONSIN

CITY           SKY/WX    TMP DP  RH WIND       PRES   REMARKS
MILWAUKEE      PTCLDY    68  56  65 W5        29.98S
KENOSHA*       CLEAR     62  57  83 W6        29.99F
RACINE*        CLEAR     66  56  70 W7        30.00S
BURLINGTON     PTCLDY    60  56  87 S3        30.00S
WAUKESHA       PTCLDY    64  55  72 SW5       30.00S
WEST BEND      MOCLDY    64  55  72 W5        29.98R
$$

INZ001>003-010>013-019-020-311200-
NORTHWEST INDIANA

CITY           SKY/WX    TMP DP  RH WIND       PRES   REMARKS
GARY*          CLEAR     64  61  88 SW7       30.03S
MICHIGAN CITY* NOT AVBL
RENSSELAER*    NOT AVBL
VALPARAISO     CLEAR     64  60  87 W3        30.03F
$$

LMZ740>746-311200-
SOUTHERN LAKE MICHIGAN

STATION/POSITION TIME  SKY/WX   TEMP WIND        PRES    VSBY
                                AIR  DIR/SP/G
                 (UTC)          (F)  (DEG/KT/KT) (MB)    (MI)
HARRISON CRIB    1000            74  270/ 12/ 14   N/A
BURNHAM HARBOR   1100            73  270/  6/  9   N/A
CALUMET HARBOR   1000            72  240/  3/  5   N/A
BURNS HARBOR     1000            73  240/ 10/ 12 1016.9S
MICHIGAN CITY    1000            71  190/  8/ 12   N/A
$$

ABBREVIATIONS USED IN REMARKS
   TC - TEMPERATURE IN CELSIUS
  WCI - WIND CHILL INDEX
   HX - HEAT INDEX
  VSB - VISIBILITY
$$



USA.gov is the U.S. government's official web portal to all federal, state and local government web resources and services.